Weather History for K8D3 - March, 2014

Change the Weather History Date:

Sunday, March 30, 2014

  Actual Average Record
Temperature  
Mean Temperature 45 °F 36 °F  
Max Temperature 62 °F 47 °F 79 °F (1967)
Min Temperature 27 °F 26 °F -10 °F (1975)
Degree Days  
Heating Degree Days 20 29  
Month to date heating degree days 1164 1056  
Since 1 July heating degree days 7981 7315  
Cooling Degree Days 0 0  
Month to date cooling degree days 0 0  
Year to date cooling degree days 0 0  
Moisture  
Dew Point 34 °F    
Average Humidity 66    
Maximum Humidity 92    
Minimum Humidity 40    
Precipitation  
Precipitation 0.00 in 0.06 in 0.48 in (2007)
Month to date precipitation 0.44 1.06  
Year to date precipitation 1.06 1.92  
Snow  
Snow 0.00 in - - ()
Month to date snowfall 3.5  
Since 1 July snowfall 25.4  
Snow Depth 0.00 in    
Sea Level Pressure  
Sea Level Pressure 29.78 in    
Wind  
Wind Speed 10 mph (ENE)    
Max Wind Speed 24 mph    
Max Gust Speed 33 mph    
T = Trace of Precipitation, MM = Missing Value Source: NWS Daily Summary

Daily Weather History Graph

Daily Weather History Graph

Search for Another Location

Airport or City:

Trip Planner

Search our weather history database for the weather conditions in past years. The results will help you decide how hot, cold, wet, or windy it might be!

Date:

Astronomy

Mar. 30, 2014 Rise Set
Actual Time 7:11 AM CDT 7:53 PM CDT
Civil Twilight 6:41 AM CDT 8:23 PM CDT
Nautical Twilight 6:06 AM CDT 8:59 PM CDT
Astronomical Twilight 5:29 AM CDT 9:36 PM CDT
Moon 6:58 AM CDT 8:09 PM CDT
Length of Visible Light 13h 41m
Length of Day
12h 41m
Waning Crescent, 0% of the Moon is Illuminated
Mar 30
Waning Crescent
Mar 30
New
Apr 7
First Quarter
Apr 15
Full
Apr 22
Last Quarter

Hourly Weather History & Observations

Time (CDT) Temp. Windchill Dew Point Humidity Pressure Visibility Wind Dir Wind Speed Gust Speed Precip Events Conditions
12:56 AM 33.1 °F 25.5 °F 30.0 °F 89% 29.79 in - SSE 9.2 mph - N/A   Unknown
1:56 AM 41.0 °F 33.9 °F 30.9 °F 67% 29.74 in - South 12.7 mph - N/A   Unknown
2:56 AM 45.0 °F 39.7 °F 30.9 °F 58% 29.72 in - South 10.4 mph 21.9 mph N/A   Unknown
3:56 AM 43.0 °F 37.7 °F 30.9 °F 62% 29.72 in - South 9.2 mph - N/A   Unknown
4:56 AM 45.0 °F 39.3 °F 30.9 °F 58% 29.76 in - NW 11.5 mph - N/A   Unknown
5:56 AM 28.9 °F 25.2 °F 27.0 °F 92% 29.79 in - ENE 3.5 mph - N/A   Unknown
6:56 AM 28.0 °F - 26.1 °F 92% 29.80 in - Calm Calm - N/A   Unknown
7:56 AM 30.9 °F 25.2 °F 28.9 °F 92% 29.81 in - SSW 5.8 mph - N/A   Unknown
8:56 AM 37.9 °F - 32.0 °F 79% 29.81 in - Calm Calm - N/A   Unknown
9:56 AM 46.0 °F - 33.1 °F 61% 29.81 in - Calm Calm - N/A   Unknown
10:56 AM 53.1 °F - 35.1 °F 50% 29.81 in - NE 5.8 mph - N/A   Unknown
11:56 AM 55.0 °F - 35.1 °F 47% 29.82 in - NNE 5.8 mph - N/A   Unknown
12:56 PM 59.0 °F - 36.0 °F 42% 29.81 in - ENE 11.5 mph - N/A   Unknown
1:56 PM 60.1 °F - 37.0 °F 42% 29.78 in - East 9.2 mph - N/A   Unknown
2:56 PM 60.1 °F - 37.0 °F 42% 29.75 in - East 12.7 mph - N/A   Unknown
3:56 PM 61.0 °F - 37.0 °F 41% 29.75 in - East 11.5 mph 23.0 mph N/A   Unknown
4:56 PM 61.0 °F - 37.0 °F 41% 29.73 in - East 16.1 mph - N/A   Unknown
5:56 PM 60.1 °F - 37.0 °F 42% 29.76 in - East 15.0 mph - N/A   Unknown
6:56 PM 55.9 °F - 39.0 °F 53% 29.75 in - East 11.5 mph - N/A   Unknown
7:56 PM 50.0 °F - 37.0 °F 61% 29.78 in - East 12.7 mph - N/A   Unknown
8:56 PM 42.1 °F 33.9 °F 36.0 °F 79% 29.80 in - NE 17.3 mph - N/A   Unknown
9:56 PM 39.9 °F 31.8 °F 35.1 °F 83% 29.79 in - NE 15.0 mph - N/A   Unknown
10:56 PM 37.0 °F 29.8 °F 33.1 °F 86% 29.78 in - North 10.4 mph - N/A   Unknown
11:56 PM 35.1 °F 27.4 °F 32.0 °F 89% 29.76 in - North 10.4 mph - N/A   Unknown